Weather History for KBXA - March, 2014

Change the Weather History Date:

Saturday, March 1, 2014

  Actual Average Record
Temperature  
Mean Temperature 64 °F -  
Max Temperature 79 °F 67 °F 79 °F (2014)
Min Temperature 49 °F 45 °F 32 °F (2013)
Degree Days  
Heating Degree Days 1    
Growing Degree Days 14 (Base 50)    
Moisture  
Dew Point 54 °F    
Average Humidity 71    
Maximum Humidity 90    
Minimum Humidity 42    
Precipitation  
Precipitation 0.00 in - - ()
Sea Level Pressure  
Sea Level Pressure 30.13 in    
Wind  
Wind Speed 5 mph (South)    
Max Wind Speed 12 mph    
Max Gust Speed 17 mph    
Visibility 10 miles    
Events      
Averages and records for this station are not official NWS values.
T = Trace of Precipitation, MM = Missing Value Source: NWS Daily Summary

Daily Weather History Graph

Daily Weather History Graph

Search for Another Location

Airport or City:

Trip Planner

Search our weather history database for the weather conditions in past years. The results will help you decide how hot, cold, wet, or windy it might be!

Date:

Astronomy

Mar. 01, 2014 Rise Set
Actual Time 6:25 AM CST 5:58 PM CST
Civil Twilight 6:01 AM CST 6:22 PM CST
Nautical Twilight 5:33 AM CST 6:50 PM CST
Astronomical Twilight 5:05 AM CST 7:18 PM CST
Moon 6:23 AM CST (3/1) 6:39 PM CST (3/1)
Length of Visible Light 12h 20m
Length of Day
11h 32m
New Moon, 0% of the Moon is Illuminated
Mar 1
New Moon
Mar 8
First Quarter
Mar 16
Full
Mar 23
Last Quarter
Mar 30
New

Hourly Weather History & Observations

Time (CST) Temp. Dew Point Humidity Pressure Visibility Wind Dir Wind Speed Gust Speed Precip Events Conditions
12:15 AM 55.6 °F 47.3 °F 74% 30.08 in 10.0 mi SSE 4.6 mph - N/A   Unknown
12:35 AM 55.9 °F 47.7 °F 74% 30.08 in 10.0 mi SSE 5.8 mph - N/A   Unknown
12:55 AM 55.9 °F 47.8 °F 74% 30.08 in 10.0 mi South 4.6 mph - N/A   Unknown
1:15 AM 56.1 °F 48.2 °F 75% 30.08 in 10.0 mi South 5.8 mph - N/A   Unknown
1:35 AM 56.5 °F 48.2 °F 74% 30.07 in 10.0 mi Calm Calm - N/A   Unknown
1:55 AM 56.5 °F 48.6 °F 75% 30.07 in 10.0 mi SSE 4.6 mph - N/A   Unknown
2:15 AM 56.1 °F 48.7 °F 76% 30.06 in 10.0 mi SSE 4.6 mph - N/A   Unknown
2:35 AM 56.1 °F 49.1 °F 77% 30.06 in 10.0 mi SSE 4.6 mph - N/A   Unknown
2:55 AM 56.7 °F 49.5 °F 77% 30.06 in 10.0 mi SSE 3.5 mph - N/A   Unknown
3:15 AM 56.7 °F 49.5 °F 77% 30.06 in 10.0 mi SSE 3.5 mph - N/A   Unknown
3:35 AM 56.7 °F 50.0 °F 78% 30.07 in 10.0 mi Calm Calm - N/A   Unknown
3:55 AM 54.7 °F 49.5 °F 83% 30.08 in 10.0 mi Calm Calm - N/A   Unknown
4:15 AM 53.2 °F 48.0 °F 82% 30.09 in 10.0 mi Calm Calm - N/A   Unknown
4:35 AM 51.8 °F 48.2 °F 88% 30.10 in 10.0 mi Calm Calm - N/A   Unknown
4:55 AM 51.3 °F 47.5 °F 87% 30.10 in 10.0 mi Calm Calm - N/A   Unknown
5:15 AM 50.4 °F 46.8 °F 87% 30.11 in 10.0 mi Calm Calm - N/A   Unknown
5:35 AM 50.7 °F 47.3 °F 88% 30.12 in 10.0 mi Calm Calm - N/A   Unknown
5:55 AM 49.3 °F 46.2 °F 89% 30.12 in 10.0 mi Calm Calm - N/A   Unknown
6:15 AM 49.5 °F 46.6 °F 90% 30.13 in 10.0 mi Calm Calm - N/A   Unknown
6:35 AM 50.2 °F 47.1 °F 89% 30.14 in 10.0 mi Calm Calm - N/A   Unknown
6:55 AM 51.8 °F 48.7 °F 89% 30.15 in 10.0 mi Calm Calm - N/A   Unknown
7:15 AM 52.7 °F 49.5 °F 89% 30.16 in 10.0 mi Calm Calm - N/A   Unknown
7:35 AM 54.7 °F 50.9 °F 87% 30.16 in 10.0 mi Calm Calm - N/A   Unknown
7:55 AM 56.5 °F 51.8 °F 84% 30.16 in 10.0 mi Calm Calm - N/A   Unknown
8:15 AM 59.0 °F 52.9 °F 80% 30.17 in 10.0 mi Calm Calm - N/A   Unknown
8:35 AM 61.0 °F 53.6 °F 77% 30.18 in 10.0 mi SSE 3.5 mph - N/A   Unknown
8:55 AM 63.3 °F 54.7 °F 73% 30.18 in 10.0 mi SSE 5.8 mph - N/A   Unknown
9:15 AM 65.3 °F 55.4 °F 70% 30.18 in 10.0 mi South 4.6 mph - N/A   Unknown
9:35 AM 67.3 °F 56.3 °F 68% 30.18 in 10.0 mi South 9.2 mph - N/A   Unknown
9:55 AM 68.5 °F 57.0 °F 67% 30.18 in 10.0 mi SSW 10.4 mph - N/A   Unknown
10:15 AM 71.1 °F 57.7 °F 63% 30.18 in 10.0 mi South 8.1 mph - N/A   Unknown
10:40 AM 73.6 °F 58.6 °F 59% 30.18 in 10.0 mi SSW 11.5 mph 16.1 mph N/A   Unknown
10:55 AM 73.9 °F 58.8 °F 59% 30.18 in 10.0 mi South 9.2 mph - N/A   Unknown
11:20 AM 75.2 °F 59.2 °F 57% 30.17 in 10.0 mi SW 8.1 mph 17.3 mph N/A   Unknown
11:35 AM 75.7 °F 59.2 °F 56% 30.17 in 10.0 mi SSW 10.4 mph 16.1 mph N/A   Unknown
11:55 AM 75.4 °F 58.6 °F 56% 30.16 in 10.0 mi SW 5.8 mph - N/A   Unknown
12:40 PM 77.0 °F 58.6 °F 53% 30.14 in 10.0 mi SW 9.2 mph - N/A   Unknown
12:55 PM 76.3 °F 56.8 °F 51% 30.13 in 10.0 mi South 6.9 mph - N/A   Unknown
1:35 PM 77.7 °F 58.1 °F 51% 30.11 in 10.0 mi South 8.1 mph - N/A   Unknown
1:55 PM 79.9 °F 56.5 °F 45% 30.11 in 10.0 mi SW 9.2 mph - N/A   Unknown
2:20 PM 79.3 °F 57.0 °F 46% 30.10 in 10.0 mi SW 8.1 mph - N/A   Unknown
2:35 PM 79.0 °F 57.2 °F 47% 30.10 in 10.0 mi SSW 10.4 mph - N/A   Unknown
2:55 PM 79.2 °F 57.2 °F 47% 30.10 in 10.0 mi South 9.2 mph - N/A   Unknown
3:10 PM 77.2 °F 57.0 °F 50% 30.10 in 10.0 mi SSW 8.1 mph - N/A   Unknown
3:35 PM 79.5 °F 55.6 °F 44% 30.09 in 10.0 mi South 11.5 mph - N/A   Unknown
3:55 PM 79.2 °F 55.0 °F 43% 30.09 in 10.0 mi South 10.4 mph - N/A   Unknown
4:15 PM 79.3 °F 54.1 °F 42% 30.09 in 10.0 mi South 8.1 mph - N/A   Unknown
4:35 PM 79.3 °F 55.4 °F 44% 30.09 in 10.0 mi South 8.1 mph - N/A   Unknown
4:55 PM 77.9 °F 56.1 °F 47% 30.10 in 10.0 mi South 9.2 mph - N/A   Unknown
5:15 PM 76.5 °F 56.8 °F 51% 30.10 in 10.0 mi SSW 6.9 mph - N/A   Unknown
5:40 PM 74.8 °F 57.2 °F 54% 30.11 in 10.0 mi SSW 10.4 mph - N/A   Unknown
5:55 PM 73.2 °F 57.2 °F 57% 30.12 in 10.0 mi SSW 6.9 mph - N/A   Unknown
6:15 PM 72.1 °F 57.7 °F 60% 30.13 in 10.0 mi SSW 9.2 mph - N/A   Unknown
6:35 PM 71.8 °F 57.7 °F 61% 30.12 in 10.0 mi South 11.5 mph - N/A   Unknown
6:55 PM 71.1 °F 57.7 °F 63% 30.13 in 10.0 mi South 10.4 mph - N/A   Unknown
7:15 PM 69.3 °F 58.3 °F 68% 30.13 in 10.0 mi SSE 9.2 mph - N/A   Unknown
7:35 PM 68.4 °F 59.7 °F 74% 30.15 in 10.0 mi SSE 8.1 mph - N/A   Unknown
7:55 PM 67.1 °F 59.7 °F 77% 30.15 in 10.0 mi SSE 8.1 mph - N/A   Unknown
8:15 PM 65.8 °F 59.5 °F 80% 30.16 in 10.0 mi SSE 6.9 mph - N/A   Unknown
8:35 PM 65.3 °F 59.5 °F 82% 30.16 in 10.0 mi SSE 6.9 mph - N/A   Unknown
8:55 PM 64.6 °F 59.5 °F 84% 30.16 in 10.0 mi SSE 5.8 mph - N/A   Unknown
9:15 PM 64.0 °F 59.4 °F 85% 30.16 in 10.0 mi SSE 5.8 mph - N/A   Unknown
9:35 PM 63.5 °F 59.2 °F 86% 30.15 in 10.0 mi SSE 5.8 mph - N/A   Unknown
9:55 PM 63.0 °F 59.0 °F 87% 30.16 in 10.0 mi Calm Calm - N/A   Unknown
10:15 PM 62.2 °F 58.6 °F 88% 30.16 in 10.0 mi SSE 3.5 mph - N/A   Unknown
10:35 PM 62.6 °F 59.0 °F 88% 30.17 in 10.0 mi SSE 3.5 mph - N/A   Unknown
10:55 PM 63.1 °F 59.5 °F 88% 30.16 in 10.0 mi South 3.5 mph - N/A   Unknown
11:15 PM 63.1 °F 59.7 °F 89% 30.15 in 10.0 mi South 8.1 mph - N/A   Unknown
11:35 PM 63.0 °F 59.9 °F 90% 30.15 in 10.0 mi South 6.9 mph - N/A   Unknown
11:55 PM 63.0 °F 59.9 °F 90% 30.15 in 10.0 mi SSE 4.6 mph - N/A   Unknown